Location: Follega
(52.8850°N, 5.7362°E)
Time: 01:54:55
(UTC+00:00)

Cosmos 1242 Rocket - Pass Details

Date: 01 June 2020
Orbit: 447 x 488 km, 81.2° (Epoch: 15 July)

Event Time Altitude Azimuth Distance (km) Brightness Sun altitude
Exits shadow 21:15:11 12° 139° (SE) 1,538 4.4 -9.0°
Maximum altitude 21:17:39 22° 91° (E) 1,103 4.1 -9.2°
Drops below altitude 10° 21:20:34 10° 39° (NE) 1,690 5.6 -9.4°
Sets 21:23:00 0° 24° (NNE) 2,576 6.8 -9.6°
